Weather Service Report


241 
ASUS44 KJAN 311810
RWRMS 

MISSISSIPPI HOURLY WEATHER ROUNDUP
NATIONAL WEATHER SERVICE JACKSON MS
100 PM CDT TUE MAR 31 2015

NOTE: "FAIR: INDICATES FEW OR NO CLOUDS BELOW 12,000 FEET WITH NO
SIGNIFICANT WEATHER AND/OR OBSTRUCTIONS TO VISIBILITY.

MSZ001>002-007>008-010>013-018>021-025>028-034>036-311900-
NORTHWEST MISSISSIPPI
  
CITY           SKY/WX    TMP DP  RH WIND       PRES   REMARKS
CLARKSDALE     FAIR      75  66  73 SW10      30.00F                  
CLEVELAND      FAIR      78  65  66 SW14G20   30.00F                  
GREENWOOD      CLOUDY    76  61  59 SW9G17    30.03F                  
6HR MIN TEMP:  61; 6HR MAX TEMP:  76;                                

GREENVILLE     SUNNY     76  63  64 SW14      30.01F                  
6HR MIN TEMP:  64; 6HR MAX TEMP:  76;                                

OLIVE BRANCH   PTSUNNY   75  64  69 SW6       29.98F                  
OXFORD         PTSUNNY   72  59  64 W9        30.02F                  
TUNICA         PTCLDY    72  63  73 S5        29.99F                  
$$

MSZ003>006-009-014>017-022>024-029>033-037>039-311900-
NORTHEAST MISSISSIPPI
  
CITY           SKY/WX    TMP DP  RH WIND       PRES   REMARKS
COLUMBUS AFB   PTSUNNY   77  60  56 W5        30.01F                  
6HR MIN TEMP:  50; 6HR MAX TEMP:  77; 6HR PCP: TRACE;                

CORINTH        FAIR      75  61  60 SW12      29.98F                  
GOLDN TRIANGLE PTSUNNY   75  61  60 SW6       30.03F                  
STARKVILLE     FAIR      75  61  60 SW8       30.02F                  
TUPELO         CLOUDY    75  59  57 W12       30.01F                  
6HR MIN TEMP:  52; 6HR MAX TEMP:  76;                                

$$

MSZ040-058-311900-
CENTRAL MISSISSIPPI
  
CITY           SKY/WX    TMP DP  RH WIND       PRES   REMARKS
JACKSON INTL   PTSUNNY   75  59  57 SW12G17   30.08F                  
JACKSON HAWKNS PTSUNNY   75  59  57 SW10      30.08F                  
6HR MIN TEMP:  60; 6HR MAX TEMP:  76;                                

MERIDIAN KEY   MOSUNNY   78  54  43 MISG      30.05F                  
6HR MIN TEMP:  52; 6HR MAX TEMP:  78;                                

MERIDIAN NAS   MOSUNNY   78  56  46 SW12      30.05F                  
6HR MIN TEMP:  56; 6HR MAX TEMP:  78;                                

RAYMOND        FAIR      75  70  83 VRB5G13   30.06F                  
VICKSBURG      PTSUNNY   76  62  62 S14       30.06F                  
6HR MIN TEMP:  59; 6HR MAX TEMP:  77;                                

$$

MSZ059>079-311900-
SOUTH MISSISSIPPI
  
CITY           SKY/WX    TMP DP  RH WIND       PRES   REMARKS
BROOKHAVEN     FAIR      75  61  60 SW7G20    30.11F                  
HATTIESBURG    PTSUNNY   80  59  48 W10       30.10F                  
6HR MIN TEMP:  61; 6HR MAX TEMP:  80;                                

MCCOMB         PTSUNNY   76  59  55 W7G21     30.09F                  
6HR MIN TEMP:  61; 6HR MAX TEMP:  78;                                

NATCHEZ        PTSUNNY   77  61  57 S16G22    30.09F                  
6HR MIN TEMP:  63; 6HR MAX TEMP:  77;                                

PINE BELT      PTSUNNY   77  57  50 W7        30.11F                  
6HR MIN TEMP:  54; 6HR MAX TEMP:  77;                                

$$

MSZ080>082-311900-
COASTAL MISSISSIPPI
  
CITY           SKY/WX    TMP DP  RH WIND       PRES   REMARKS
BILOXI         SUNNY     77  66  68 SW16      30.10F                  
6HR MIN TEMP:  64; 6HR MAX TEMP:  77;                                

PASCAGOULA     PTSUNNY   79  62  56 SW12G22   30.11F                  
6HR MIN TEMP:  57; 6HR MAX TEMP:  80;                                

GULFPORT       MOSUNNY   78  63  59 SW10G20   30.10F                  
6HR MIN TEMP:  60; 6HR MAX TEMP:  78;                                

$$

Return to Home page


Western Regional Climate Center, wrcc@dri.edu